Regional Weather Roundup
Issued by NWS

Home | Current Version | Previous Version | Text Only | Print | Product List | Glossary Off
Versions: 1 2 3 4 5 6 7 8 9 10 11 12 13 14 15 16 17 18 19 20 21 22 23 24 25 26 27 28 29 30 31 32 33 34 35 36 37 38 39 40 41 42 43 44 45 46 47 48 49 50

000
ASUS45 KSLC 271910
RWRUT

UTAH REGIONAL WEATHER ROUNDUP
NATIONAL WEATHER SERVICE SALT LAKE CITY UT
1200 PM MST TUE JAN 27 2015

UTZ001>011-023>025-272000-

NORTHERN UTAH

CITY           SKY/WX    TMP DP  RH WIND       PRES   REMARKS
BRIGHAM CITY   CLOUDY    39  35  87 CALM      30.25F
HILL AFB       PTSUNNY   45  26  46 CALM      30.22F
LOGAN          CLOUDY    38  33  82 N3        30.22F
OGDEN          CLOUDY    44  36  73 N3        30.22F HAZE
PROVO AIRPORT  PTSUNNY   39  32  75 VRB3      30.26S
SALT LAKE CITY CLOUDY    51  35  54 SE14      30.20F
VERNAL         PTSUNNY   40  26  57 S3        30.31F
WENDOVER       CLOUDY    41  34  75 SE6       30.24R
HEBER CITY     CLOUDY    36  30  80 CALM      30.24F
WEST JORDAN    PTSUNNY   48  36  61 SE13      30.22F

$$

UTZ012>022-026-027-272000-

SOUTHERN/CENTRAL UTAH

CITY           SKY/WX    TMP DP  RH WIND       PRES   REMARKS
BLANDING       CLOUDY    46  28  50 CALM      30.43F
BRYCE CANYON   CLOUDY    34  33  96 SE12      30.34F WCI  25
CEDAR CITY     SUNNY     49  41  74 SW10      30.27F
DELTA          CLOUDY    47  38  72 SW9       30.25F
MILFORD        MOSUNNY   50  40  68 S17       30.26F
MOAB/CYNLANDS  LGT RAIN  39  31  72 CALM      30.31F
PRICE          CLOUDY    41  26  55 SE3       30.32F
ST GEORGE      CLOUDY    54  45  71 N5        30.30F
KANAB            N/A     46  37  71 CALM      30.36F

$$

REGIONAL REPORTS     COLORADO/ARIZONA

CITY           SKY/WX    TMP DP  RH WIND       PRES   REMARKS
CRAIG, CO      MOSUNNY   34  24  67 SW5       30.28F WCI  30
GRAND JUNCTION CLOUDY    44  27  51 NE8       30.29F
RIFLE          MOSUNNY   45  25  45 CALM      30.29F
MONTROSE       SUNNY     54  24  31 N5        30.30F
CORTEZ         CLOUDY    47  29  49 CALM      30.35F
PAGE, AZ       NOT AVBL
GRAND CANYON   CLOUDY    45  42  89 SW9       30.35F
KINGMAN        MOSUNNY   58  46  64 W3        30.28F
FLAGSTAFF      PTSUNNY   46  36  68 SW9       30.36F

$$

REGIONAL REPORTS    NEVADA/IDAHO/WYOMING

CITY           SKY/WX    TMP DP  RH WIND       PRES   REMARKS
LAS VEGAS, NV  PTSUNNY   57  48  72 CALM      30.23F
ELY            CLOUDY    46  37  71 S18G29    30.22F
ELKO           CLOUDY    43  38  82 W3        30.16F
POCATELLO, ID  SUNNY     39  36  89 CALM      30.16S
BURLEY         CLOUDY    50  35  56 SW20G28   30.10F
EVANSTON, WY   CLOUDY    43  26  51 SW18      30.22F
ROCK SPRINGS   MOSUNNY   45  27  49 N3        30.21F
KEMMERER       CLOUDY    39  27  60 NW3       30.24F

$$


USA.gov is the U.S. government's official web portal to all federal, state and local government web resources and services.